OK1CMJ-5 Weather Reports


time (UTC)temp
C
wind
direction
speed
KPH
gust
KPH
rain 1hr
cm
rain 24hr
cm
rain mn
cm
humidity
%
barometer
mb
20260508212646 8 314 3.2 6.4 0.00 0.00 0.00 77 1020.7
20260508211746 8 325 0.0 3.2 0.00 0.00 0.00 76 1020.7
20260508210846 8 344 0.0 3.2 0.00 0.00 0.00 75 1020.7
20260508205946 8 316 0.0 3.2 0.00 0.00 0.00 74 1020.6
20260508205046 8 294 0.0 3.2 0.00 0.00 0.00 73 1020.7
20260508204146 8 292 1.6 6.4 0.00 0.00 0.00 73 1020.7
20260508203246 8 312 0.0 4.8 0.00 0.00 0.00 73 1020.7
20260508202346 8 292 1.6 6.4 0.00 0.00 0.00 73 1020.4
20260508201447 8 292 0.0 3.2 0.00 0.00 0.00 72 1020.5
20260508200546 8 295 0.0 4.8 0.00 0.00 0.00 72 1020.5
20260508195646 7 302 1.6 4.8 0.00 0.00 0.00 69 1020.4
20260508193846 7 292 0.0 1.6 0.00 0.00 0.00 61 1020.3
20260508192046 8 292 0.0 3.2 0.00 0.00 0.00 59 1019.8
20260508191146 9 0 0.0 0.0 0.00 0.00 0.00 57 1019.8
20260508190247 10 292 0.0 3.2 0.00 0.00 0.00 56 1019.9
20260508185346 10 292 0.0 3.2 0.00 0.00 0.00 55 1019.6
20260508184446 10 292 0.0 4.8 0.00 0.00 0.00 53 1019.5
20260508183546 10 311 1.6 4.8 0.00 0.00 0.00 52 1019.4
20260508182646 11 1 0.0 6.4 0.00 0.00 0.00 50 1019.3
20260508181746 11 327 0.0 4.8 0.00 0.00 0.00 49 1019.4
20260508180846 11 292 0.0 4.8 0.00 0.00 0.00 48 1019.3
20260508175047 11 344 3.2 6.4 0.00 0.00 0.00 48 1019.0
20260508174146 11 292 1.6 6.4 0.00 0.00 0.00 47 1018.8
20260508173246 11 292 3.2 6.4 0.00 0.00 0.00 46 1018.9
20260508172346 12 331 3.2 8.0 0.00 0.00 0.00 44 1018.6
20260508171446 12 24 3.2 6.4 0.00 0.00 0.00 41 1018.7
20260508170546 13 294 3.2 6.4 0.00 0.00 0.00 38 1018.7
20260508165646 13 330 1.6 9.7 0.00 0.00 0.00 38 1018.7
20260508164746 13 317 4.8 9.7 0.00 0.00 0.00 37 1018.7
20260508163846 13 356 3.2 9.7 0.00 0.00 0.00 38 1018.7
20260508162946 14 24 3.2 11.3 0.00 0.00 0.00 37 1018.7
20260508155346 14 8 3.2 11.3 0.00 0.00 0.00 32 1018.9
20260508154446 15 340 6.4 12.9 0.00 0.00 0.00 32 1018.7
20260508153546 13 307 3.2 8.0 0.00 0.00 0.00 36 1018.7
20260508150846 16 289 3.2 9.7 0.00 0.00 0.00 26 1018.8
20260508145946 16 81 3.2 11.3 0.00 0.00 0.00 30 1018.7
20260508145046 15 346 4.8 9.7 0.00 0.00 0.00 32 1018.7
20260508144147 15 312 3.2 8.0 0.00 0.00 0.00 32 1019.0
20260508142346 15 88 3.2 6.4 0.00 0.00 0.00 32 1019.0
20260508141446 15 347 3.2 6.4 0.00 0.00 0.00 29 1019.0
20260508132537 16 1 1.6 12.9 0.00 0.00 0.00 25 1019.2
20260508131637 16 1 1.6 9.7 0.00 0.00 0.00 28 1019.1
20260508130737 15 348 3.2 6.4 0.00 0.00 0.00 29 1019.2
20260508125837 15 345 3.2 9.7 0.00 0.00 0.00 30 1019.3
20260508124937 15 331 4.8 9.7 0.00 0.00 0.00 29 1019.3
20260508124037 15 103 1.6 3.2 0.00 0.00 0.00 32 1019.3
20260508123137 15 62 0.0 6.4 0.00 0.00 0.00 35 1019.5
20260508122237 15 341 3.2 8.0 0.00 0.00 0.00 34 1019.3
20260508121337 14 205 3.2 8.0 0.00 0.00 0.00 37 1019.3
20260508114637 13 78 3.2 6.4 0.00 0.00 0.00 37 1019.2
20260508113737 13 55 3.2 8.0 0.00 0.00 0.00 37 1019.2
20260508112837 13 337 3.2 9.7 0.00 0.00 0.00 37 1019.4
20260508111937 15 351 3.2 8.0 0.00 0.00 0.00 36 1019.4
20260508110137 15 338 3.2 6.4 0.00 0.00 0.00 42 1019.3
20260508105237 14 26 4.8 9.7 0.00 0.00 0.00 41 1019.4
20260508104337 13 1 3.2 9.7 0.00 0.00 0.00 44 1019.5
20260508103437 13 15 3.2 6.4 0.00 0.00 0.00 48 1019.4
20260508102537 13 89 1.6 6.4 0.00 0.00 0.00 51 1019.5
20260508101637 12 68 4.8 9.7 0.00 0.00 0.00 54 1019.6
20260508100737 12 1 4.8 6.4 0.00 0.00 0.00 53 1019.4
20260508095837 12 342 3.2 9.7 0.00 0.00 0.00 56 1019.5
20260508094037 11 2 3.2 9.7 0.00 0.00 0.00 56 1019.5
20260508093137 11 15 3.2 9.7 0.00 0.00 0.00 55 1019.4
20260508092237 12 6 4.8 8.0 0.00 0.00 0.00 53 1019.4
20260508091337 12 1 3.2 8.0 0.00 0.00 0.00 52 1019.5
20260508085537 13 339 3.2 6.4 0.00 0.00 0.00 46 1019.6
20260508084637 13 310 3.2 6.4 0.00 0.00 0.00 51 1019.5
20260508082837 12 127 1.6 4.8 0.00 0.00 0.00 64 1019.6
20260508081937 12 318 0.0 3.2 0.00 0.00 0.00 67 1019.4
20260508081037 11 1 0.0 3.2 0.00 0.00 0.00 70 1019.4
20260508080137 11 354 0.0 3.2 0.00 0.00 0.00 70 1019.4
20260508075237 11 312 0.0 3.2 0.00 0.00 0.00 70 1019.4
20260508074337 11 284 0.0 6.4 0.00 0.00 0.00 69 1019.4
20260508073437 11 217 1.6 3.2 0.00 0.00 0.00 69 1019.4
20260508072537 11 95 1.6 4.8 0.00 0.00 0.00 70 1019.2
20260508071637 12 118 1.6 4.8 0.00 0.00 0.00 72 1019.1
20260508064937 11 314 0.0 3.2 0.00 0.00 0.00 81 1018.9
20260508064037 10 314 0.0 6.4 0.00 0.00 0.00 81 1018.8
20260508063137 10 314 1.6 3.2 0.00 0.00 0.00 86 1018.9
20260508062237 10 314 0.0 3.2 0.00 0.00 0.00 87 1018.7
20260508061337 10 295 0.0 3.2 0.00 0.00 0.00 93 1018.6
20260508060437 10 225 0.0 3.2 0.00 0.00 0.00 99 1018.6
20260508055537 9 225 0.0 3.2 0.00 0.00 0.00 99 1018.6
20260508054637 9 183 1.6 4.8 0.00 0.00 0.00 99 1018.6
20260508053737 9 105 1.6 6.4 0.00 0.00 0.00 99 1018.5
20260508052837 8 324 3.2 6.4 0.00 0.00 0.00 99 1018.4
20260508051937 8 46 3.2 6.4 0.00 0.00 0.00 99 1018.5
20260508051037 8 0 0.0 0.0 0.00 0.00 0.00 99 1018.5
20260508045236 8 0 0.0 0.0 0.00 0.00 0.00 99 1018.2
20260508044337 8 0 0.0 0.0 0.00 0.00 0.00 99 1018.2
20260508043436 8 0 0.0 0.0 0.00 0.00 0.00 99 1018.1
20260508042536 7 1 0.0 1.6 0.00 0.00 0.00 99 1018.1
20260508041636 7 348 0.0 3.2 0.00 0.00 0.00 99 1018.1
20260508040736 7 0 0.0 0.0 0.00 0.00 0.00 99 1018.1
20260508035836 7 0 0.0 0.0 0.00 0.00 0.00 99 1018.1
20260508034936 7 0 0.0 0.0 0.00 0.00 0.00 99 1018.0
20260508034037 7 317 0.0 3.2 0.00 0.00 0.00 99 1017.8
20260508033136 7 314 0.0 3.2 0.00 0.00 0.00 99 1017.8
20260508032237 7 332 0.0 3.2 0.00 0.00 0.00 98 1017.8
20260508031336 7 0 0.0 0.0 0.00 0.00 0.00 97 1017.8
20260508030437 6 0 0.0 0.0 0.00 0.03 0.00 96 1017.7
20260508023736 6 1 0.0 1.6 0.00 0.03 0.00 95 1017.7
20260508022837 6 0 0.0 0.0 0.00 0.03 0.00 95 1017.6
20260508021936 6 0 0.0 0.0 0.00 0.03 0.00 94 1017.8
20260508021037 6 0 0.0 0.0 0.00 0.03 0.00 93 1017.8
20260508020137 6 0 0.0 0.0 0.00 0.03 0.00 93 1017.8
20260508015236 6 0 0.0 0.0 0.00 0.03 0.00 92 1017.7
20260508013436 6 0 0.0 0.0 0.00 0.03 0.00 91 1017.7
20260508012537 6 0 0.0 0.0 0.00 0.03 0.00 91 1017.6
20260508011637 6 0 0.0 0.0 0.00 0.03 0.00 90 1017.6
20260508010736 7 0 0.0 0.0 0.00 0.03 0.00 90 1017.5
20260508004937 7 0 0.0 0.0 0.00 0.03 0.00 89 1017.6
20260508004036 7 314 0.0 1.6 0.00 0.03 0.00 89 1017.6
20260508002237 7 309 1.6 4.8 0.00 0.03 0.00 89 1017.5
20260508001336 7 292 0.0 1.6 0.00 0.03 0.00 87 1017.6
20260508000436 7 0 0.0 0.0 0.00 0.03 0.00 86 1017.5
20260507235537 7 0 0.0 0.0 0.00 0.03 0.00 85 1017.7
20260507234636 7 0 0.0 0.0 0.00 0.03 0.00 85 1017.7
20260507233737 7 0 0.0 0.0 0.00 0.03 0.00 84 1017.7
20260507232836 7 0 0.0 0.0 0.00 0.03 0.00 83 1017.7
20260507231936 7 0 0.0 0.0 0.00 0.03 0.00 83 1017.7
20260507231036 7 0 0.0 0.0 0.00 0.03 0.00 82 1017.9
20260507230136 7 0 0.0 0.0 0.00 0.03 0.00 81 1017.9
20260507224336 7 0 0.0 0.0 0.00 0.03 0.00 80 1018.1
20260507223436 7 291 0.0 3.2 0.00 0.03 0.00 79 1017.9
20260507222536 7 291 0.0 3.2 0.00 0.03 0.00 78 1017.8
20260507221636 7 0 0.0 0.0 0.00 0.03 0.00 78 1018.0
20260507220736 7 281 0.0 1.6 0.00 0.03 0.00 77 1017.8
20260507215836 8 289 0.0 4.8 0.00 0.03 0.03 77 1017.7
20260507214936 8 301 1.6 4.8 0.00 0.03 0.03 78 1017.6
20260507214036 8 304 3.2 6.4 0.00 0.03 0.03 77 1017.5